Time,TemperatureF,DewpointF,PressureIn,WindDirection,WindDirectionDegrees,WindSpeedMPH,WindSpeedGustMPH,Humidity,HourlyPrecipIn,Conditions,Clouds,dailyrainin,SoftwareType,DateUTC
2013-02-05 00:02:00,29.4,24.9,29.97,NNW,336,2.0,4.0,83,0.00,,,0.00,Wunderground v.1.15,2013-02-05 06:02:00,
2013-02-05 00:08:00,29.3,24.8,29.97,NNW,335,1.0,4.0,83,0.00,,,0.00,Wunderground v.1.15,2013-02-05 06:08:00,
2013-02-05 00:14:00,29.3,25.1,29.96,NNW,335,1.0,2.0,84,0.00,,,0.00,Wunderground v.1.15,2013-02-05 06:14:00,
2013-02-05 00:20:00,29.2,24.7,29.96,NNW,336,0.0,1.0,83,0.00,,,0.00,Wunderground v.1.15,2013-02-05 06:20:00,
2013-02-05 00:26:00,29.2,25.0,29.96,NNW,335,0.0,2.0,84,0.00,,,0.00,Wunderground v.1.15,2013-02-05 06:26:00,
2013-02-05 00:31:00,29.1,24.9,29.96,NNW,336,1.0,2.0,84,0.00,,,0.00,Wunderground v.1.15,2013-02-05 06:31:00,
2013-02-05 00:37:00,29.1,25.2,29.96,NNW,337,2.0,4.0,85,0.00,,,0.00,Wunderground v.1.15,2013-02-05 06:37:00,
2013-02-05 00:43:00,29.0,25.1,29.96,NNW,336,2.0,2.0,85,0.00,,,0.00,Wunderground v.1.15,2013-02-05 06:43:00,
2013-02-05 00:49:00,29.0,25.1,29.96,NNW,337,1.0,3.0,85,0.00,,,0.00,Wunderground v.1.15,2013-02-05 06:49:00,
2013-02-05 00:55:00,29.0,25.1,29.95,NNW,335,1.0,2.0,85,0.00,,,0.00,Wunderground v.1.15,2013-02-05 06:55:00,
2013-02-05 01:00:00,28.9,25.0,29.95,NNW,335,1.0,1.0,85,0.00,,,0.00,Wunderground v.1.15,2013-02-05 07:00:00,
2013-02-05 01:06:00,28.9,25.0,29.96,NNW,337,0.0,1.0,85,0.00,,,0.00,Wunderground v.1.15,2013-02-05 07:06:00,
2013-02-05 01:12:00,28.9,25.0,29.96,NNW,334,0.0,0.0,85,0.00,,,0.00,Wunderground v.1.15,2013-02-05 07:12:00,
2013-02-05 01:18:00,28.9,25.0,29.96,NNW,335,0.0,2.0,85,0.00,,,0.00,Wunderground v.1.15,2013-02-05 07:18:00,
2013-02-05 01:23:00,28.8,24.9,29.96,NNW,338,0.0,1.0,85,0.00,,,0.00,Wunderground v.1.15,2013-02-05 07:23:00,
2013-02-05 01:29:00,28.9,25.0,29.96,NNW,335,0.0,1.0,85,0.00,,,0.00,Wunderground v.1.15,2013-02-05 07:29:00,
2013-02-05 01:34:00,28.9,25.0,29.96,NNW,337,0.0,0.0,85,0.00,,,0.00,Wunderground v.1.15,2013-02-05 07:34:00,
2013-02-05 01:40:00,28.9,25.0,29.96,NNW,335,0.0,0.0,85,0.00,,,0.00,Wunderground v.1.15,2013-02-05 07:40:00,
2013-02-05 01:46:00,28.8,24.9,29.96,NNW,334,0.0,0.0,85,0.00,,,0.00,Wunderground v.1.15,2013-02-05 07:46:00,
2013-02-05 01:52:00,28.7,24.8,29.96,NNW,333,0.0,0.0,85,0.00,,,0.00,Wunderground v.1.15,2013-02-05 07:52:00,
2013-02-05 01:58:00,28.7,25.0,29.96,NNW,338,0.0,0.0,86,0.00,,,0.00,Wunderground v.1.15,2013-02-05 07:58:00,
2013-02-05 02:04:00,28.7,25.0,29.97,NNW,336,1.0,3.0,86,0.00,,,0.00,Wunderground v.1.15,2013-02-05 08:04:00,
2013-02-05 02:09:00,28.7,24.8,29.98,NNW,335,1.0,3.0,85,0.00,,,0.00,Wunderground v.1.15,2013-02-05 08:09:00,
2013-02-05 02:15:00,28.7,25.0,29.97,NNW,335,0.0,1.0,86,0.00,,,0.00,Wunderground v.1.15,2013-02-05 08:15:00,
2013-02-05 02:21:00,28.8,25.1,29.97,NNW,340,0.0,2.0,86,0.00,,,0.00,Wunderground v.1.15,2013-02-05 08:21:00,
2013-02-05 02:27:00,28.8,24.9,29.96,NNW,335,0.0,2.0,85,0.00,,,0.00,Wunderground v.1.15,2013-02-05 08:27:00,
2013-02-05 02:33:00,28.9,25.0,29.96,NNW,337,0.0,0.0,85,0.00,,,0.00,Wunderground v.1.15,2013-02-05 08:33:00,
2013-02-05 02:38:00,28.9,25.0,29.96,NNW,335,0.0,1.0,85,0.00,,,0.00,Wunderground v.1.15,2013-02-05 08:38:00,
2013-02-05 02:44:00,28.9,24.7,29.96,NNW,335,1.0,3.0,84,0.00,,,0.00,Wunderground v.1.15,2013-02-05 08:44:00,
2013-02-05 02:50:00,28.9,24.7,29.96,NNW,335,1.0,1.0,84,0.00,,,0.00,Wunderground v.1.15,2013-02-05 08:50:00,
2013-02-05 02:56:00,29.0,24.8,29.96,NNW,336,2.0,3.0,84,0.00,,,0.00,Wunderground v.1.15,2013-02-05 08:56:00,
2013-02-05 03:02:00,29.0,24.8,29.96,NNW,334,2.0,2.0,84,0.00,,,0.00,Wunderground v.1.15,2013-02-05 09:02:00,
2013-02-05 03:08:00,29.0,24.8,29.97,NNW,333,1.0,2.0,84,0.00,,,0.00,Wunderground v.1.15,2013-02-05 09:08:00,
2013-02-05 03:13:00,29.1,24.9,29.96,NNW,335,1.0,1.0,84,0.00,,,0.00,Wunderground v.1.15,2013-02-05 09:13:00,
2013-02-05 03:19:00,29.1,24.9,29.96,NNW,338,0.0,1.0,84,0.00,,,0.00,Wunderground v.1.15,2013-02-05 09:19:00,
2013-02-05 03:25:00,29.0,24.8,29.96,NNW,339,0.0,1.0,84,0.00,,,0.00,Wunderground v.1.15,2013-02-05 09:25:00,
2013-02-05 03:31:00,29.1,24.9,29.96,NNW,338,1.0,1.0,84,0.00,,,0.00,Wunderground v.1.15,2013-02-05 09:31:00,
2013-02-05 03:37:00,29.1,24.9,29.96,NNW,332,2.0,2.0,84,0.00,,,0.00,Wunderground v.1.15,2013-02-05 09:37:00,
2013-02-05 03:43:00,29.1,24.9,29.96,NNW,332,2.0,3.0,84,0.00,,,0.00,Wunderground v.1.15,2013-02-05 09:43:00,
2013-02-05 03:49:00,29.1,24.9,29.95,West,275,2.0,4.0,84,0.00,,,0.00,Wunderground v.1.15,2013-02-05 09:49:00,
2013-02-05 03:54:00,29.1,25.2,29.95,West,259,3.0,5.0,85,0.00,,,0.00,Wunderground v.1.15,2013-02-05 09:54:00,
2013-02-05 04:00:00,29.1,25.2,29.95,SW,219,3.0,5.0,85,0.00,,,0.00,Wunderground v.1.15,2013-02-05 10:00:00,
2013-02-05 04:06:00,29.1,25.2,29.94,SW,220,4.0,5.0,85,0.00,,,0.00,Wunderground v.1.15,2013-02-05 10:06:00,
2013-02-05 04:12:00,29.1,25.2,29.94,SW,218,2.0,3.0,85,0.00,,,0.00,Wunderground v.1.15,2013-02-05 10:12:00,
2013-02-05 04:18:00,29.1,25.2,29.94,SW,221,2.0,5.0,85,0.00,,,0.00,Wunderground v.1.15,2013-02-05 10:18:00,
2013-02-05 04:24:00,29.0,25.1,29.94,SW,222,3.0,5.0,85,0.00,,,0.00,Wunderground v.1.15,2013-02-05 10:24:00,
2013-02-05 04:30:00,29.0,25.1,29.94,SW,221,3.0,3.0,85,0.00,,,0.00,Wunderground v.1.15,2013-02-05 10:30:00,
2013-02-05 04:36:00,29.0,25.1,29.94,SW,221,3.0,5.0,85,0.00,,,0.00,Wunderground v.1.15,2013-02-05 10:36:00,
2013-02-05 04:42:00,29.1,25.2,29.94,SW,217,3.0,5.0,85,0.00,,,0.00,Wunderground v.1.15,2013-02-05 10:42:00,
2013-02-05 04:48:00,29.1,25.2,29.95,SW,221,4.0,6.0,85,0.00,,,0.00,Wunderground v.1.15,2013-02-05 10:48:00,
2013-02-05 04:53:00,29.1,25.2,29.95,SW,221,4.0,5.0,85,0.00,,,0.00,Wunderground v.1.15,2013-02-05 10:53:00,
2013-02-05 04:59:00,29.1,25.2,29.94,SW,219,5.0,8.0,85,0.00,,,0.00,Wunderground v.1.15,2013-02-05 10:59:00,
2013-02-05 05:05:00,29.1,25.4,29.95,SW,219,5.0,8.0,86,0.00,,,0.00,Wunderground v.1.15,2013-02-05 11:05:00,
2013-02-05 05:10:00,29.0,25.3,29.95,SW,218,5.0,5.0,86,0.00,,,0.00,Wunderground v.1.15,2013-02-05 11:10:00,
2013-02-05 05:15:00,29.1,25.4,29.95,SW,219,5.0,6.0,86,0.00,,,0.00,Wunderground v.1.15,2013-02-05 11:15:00,
2013-02-05 05:21:00,29.1,25.4,29.95,SSW,213,5.0,7.0,86,0.00,,,0.00,Wunderground v.1.15,2013-02-05 11:21:00,
2013-02-05 05:27:00,29.2,25.5,29.95,SSW,210,5.0,7.0,86,0.00,,,0.00,Wunderground v.1.15,2013-02-05 11:27:00,
2013-02-05 05:33:00,29.2,25.5,29.95,SSW,206,4.0,5.0,86,0.00,,,0.00,Wunderground v.1.15,2013-02-05 11:33:00,
2013-02-05 05:39:00,29.2,25.5,29.95,SSW,207,4.0,5.0,86,0.00,,,0.00,Wunderground v.1.15,2013-02-05 11:39:00,
2013-02-05 05:45:00,29.3,25.6,29.95,SSW,206,4.0,5.0,86,0.00,,,0.00,Wunderground v.1.15,2013-02-05 11:45:00,
2013-02-05 05:50:00,29.2,25.5,29.95,SSW,206,5.0,7.0,86,0.00,,,0.00,Wunderground v.1.15,2013-02-05 11:50:00,
2013-02-05 05:56:00,29.2,25.5,29.95,SSW,204,5.0,8.0,86,0.00,,,0.00,Wunderground v.1.15,2013-02-05 11:56:00,
2013-02-05 06:02:00,29.2,25.5,29.95,SSW,205,4.0,7.0,86,0.00,,,0.00,Wunderground v.1.15,2013-02-05 12:02:00,
2013-02-05 06:08:00,29.2,25.5,29.94,SSW,200,4.0,7.0,86,0.00,,,0.00,Wunderground v.1.15,2013-02-05 12:08:00,
2013-02-05 06:14:00,29.3,25.9,29.94,SSW,204,3.0,4.0,87,0.00,,,0.00,Wunderground v.1.15,2013-02-05 12:14:00,
2013-02-05 06:20:00,29.3,25.9,29.93,SSW,200,4.0,4.0,87,0.00,,,0.00,Wunderground v.1.15,2013-02-05 12:20:00,
2013-02-05 06:26:00,29.2,25.5,29.93,SSW,193,5.0,9.0,86,0.00,,,0.00,Wunderground v.1.15,2013-02-05 12:26:00,
2013-02-05 06:32:00,29.1,25.4,29.93,SSW,196,6.0,10.0,86,0.00,,,0.00,Wunderground v.1.15,2013-02-05 12:32:00,
2013-02-05 06:38:00,29.0,25.3,29.93,SSW,194,6.0,10.0,86,0.00,,,0.00,Wunderground v.1.15,2013-02-05 12:38:00,
2013-02-05 06:43:00,29.0,25.6,29.94,SSW,197,5.0,6.0,87,0.00,,,0.00,Wunderground v.1.15,2013-02-05 12:43:00,
2013-02-05 06:49:00,29.0,25.6,29.93,SSW,192,5.0,8.0,87,0.00,,,0.00,Wunderground v.1.15,2013-02-05 12:49:00,
2013-02-05 06:55:00,28.9,25.5,29.93,South,191,7.0,8.0,87,0.00,,,0.00,Wunderground v.1.15,2013-02-05 12:55:00,
2013-02-05 07:00:00,28.9,25.5,29.93,South,188,6.0,6.0,87,0.00,,,0.00,Wunderground v.1.15,2013-02-05 13:00:00,
2013-02-05 07:06:00,28.9,25.5,29.93,SSW,194,6.0,7.0,87,0.00,,,0.00,Wunderground v.1.15,2013-02-05 13:06:00,
2013-02-05 07:11:00,29.0,25.6,29.94,South,186,6.0,6.0,87,0.00,,,0.00,Wunderground v.1.15,2013-02-05 13:11:00,
2013-02-05 07:17:00,29.0,25.6,29.94,SSW,202,5.0,8.0,87,0.00,,,0.00,Wunderground v.1.15,2013-02-05 13:17:00,
2013-02-05 07:23:00,29.0,25.6,29.94,SSW,198,6.0,7.0,87,0.00,,,0.00,Wunderground v.1.15,2013-02-05 13:23:00,
2013-02-05 07:29:00,29.1,26.0,29.94,SSW,205,5.0,8.0,88,0.00,,,0.00,Wunderground v.1.15,2013-02-05 13:29:00,
2013-02-05 07:35:00,29.1,26.0,29.94,SSW,199,4.0,7.0,88,0.00,,,0.00,Wunderground v.1.15,2013-02-05 13:35:00,
2013-02-05 07:41:00,29.2,26.1,29.95,SSW,193,4.0,5.0,88,0.00,,,0.00,Wunderground v.1.15,2013-02-05 13:41:00,
2013-02-05 07:47:00,29.3,26.2,29.95,SSW,196,5.0,8.0,88,0.00,,,0.00,Wunderground v.1.15,2013-02-05 13:47:00,
2013-02-05 07:52:00,29.3,26.2,29.94,SSW,197,6.0,8.0,88,0.00,,,0.00,Wunderground v.1.15,2013-02-05 13:52:00,
2013-02-05 07:58:00,29.4,26.3,29.95,South,183,5.0,8.0,88,0.00,,,0.00,Wunderground v.1.15,2013-02-05 13:58:00,
2013-02-05 08:03:00,29.4,26.3,29.94,SSW,193,4.0,5.0,88,0.00,,,0.00,Wunderground v.1.15,2013-02-05 14:03:00,
2013-02-05 08:09:00,29.5,26.4,29.94,SSW,207,4.0,8.0,88,0.00,,,0.00,Wunderground v.1.15,2013-02-05 14:09:00,
2013-02-05 08:15:00,29.6,26.5,29.94,South,189,5.0,8.0,88,0.00,,,0.00,Wunderground v.1.15,2013-02-05 14:15:00,
2013-02-05 08:21:00,29.7,26.6,29.94,SSW,210,5.0,6.0,88,0.00,,,0.00,Wunderground v.1.15,2013-02-05 14:21:00,
2013-02-05 08:27:00,29.8,26.7,29.94,SSW,204,6.0,9.0,88,0.00,,,0.00,Wunderground v.1.15,2013-02-05 14:27:00,
2013-02-05 08:33:00,30.0,26.9,29.94,SW,233,7.0,10.0,88,0.00,,,0.00,Wunderground v.1.15,2013-02-05 14:33:00,
2013-02-05 08:38:00,30.1,27.0,29.94,SSW,196,7.0,10.0,88,0.00,,,0.00,Wunderground v.1.15,2013-02-05 14:38:00,
2013-02-05 08:44:00,30.1,27.0,29.94,SSW,193,7.0,7.0,88,0.00,,,0.00,Wunderground v.1.15,2013-02-05 14:44:00,
2013-02-05 08:50:00,30.2,26.8,29.93,SSW,206,7.0,9.0,87,0.00,,,0.00,Wunderground v.1.15,2013-02-05 14:50:00,
2013-02-05 08:56:00,30.3,26.9,29.93,SSW,204,8.0,13.0,87,0.00,,,0.00,Wunderground v.1.15,2013-02-05 14:56:00,
2013-02-05 09:01:00,30.4,27.0,29.93,South,180,8.0,12.0,87,0.00,,,0.00,Wunderground v.1.15,2013-02-05 15:01:00,
2013-02-05 09:07:00,30.6,27.2,29.93,SSW,199,8.0,13.0,87,0.00,,,0.00,Wunderground v.1.15,2013-02-05 15:07:00,
2013-02-05 09:13:00,30.7,27.3,29.92,SSW,197,8.0,8.0,87,0.00,,,0.00,Wunderground v.1.15,2013-02-05 15:13:00,
2013-02-05 09:18:00,31.0,27.6,29.92,SSW,203,7.0,9.0,87,0.00,,,0.00,Wunderground v.1.15,2013-02-05 15:18:00,
2013-02-05 09:24:00,31.2,27.5,29.93,South,190,8.0,9.0,86,0.00,,,0.00,Wunderground v.1.15,2013-02-05 15:24:00,
2013-02-05 09:30:00,31.4,27.7,29.93,SSW,210,8.0,8.0,86,0.00,,,0.00,Wunderground v.1.15,2013-02-05 15:30:00,
2013-02-05 09:36:00,31.5,27.8,29.93,SW,221,9.0,11.0,86,0.00,,,0.00,Wunderground v.1.15,2013-02-05 15:36:00,
2013-02-05 09:42:00,31.7,28.0,29.94,SSW,192,8.0,9.0,86,0.00,,,0.00,Wunderground v.1.15,2013-02-05 15:42:00,
2013-02-05 09:48:00,32.0,28.3,29.94,SW,220,7.0,9.0,86,0.00,,,0.00,Wunderground v.1.15,2013-02-05 15:48:00,
2013-02-05 09:54:00,32.3,28.3,29.94,SW,219,7.0,10.0,85,0.00,,,0.00,Wunderground v.1.15,2013-02-05 15:54:00,
2013-02-05 09:59:00,32.3,28.3,29.94,SSW,194,8.0,10.0,85,0.00,,,0.00,Wunderground v.1.15,2013-02-05 15:59:00,
2013-02-05 10:05:00,32.3,28.0,29.94,SSW,197,9.0,14.0,84,0.00,,,0.00,Wunderground v.1.15,2013-02-05 16:05:00,
2013-02-05 10:11:00,32.4,28.4,29.94,WSW,241,9.0,9.0,85,0.00,,,0.00,Wunderground v.1.15,2013-02-05 16:11:00,
2013-02-05 10:17:00,32.8,28.8,29.94,South,190,9.0,13.0,85,0.00,,,0.00,Wunderground v.1.15,2013-02-05 16:17:00,
2013-02-05 10:23:00,33.3,29.0,29.94,South,189,9.0,10.0,84,0.00,,,0.00,Wunderground v.1.15,2013-02-05 16:23:00,
2013-02-05 10:29:00,33.7,29.1,29.93,South,188,8.0,11.0,83,0.00,,,0.00,Wunderground v.1.15,2013-02-05 16:29:00,
2013-02-05 10:34:00,34.1,29.5,29.93,SSW,210,9.0,10.0,83,0.00,,,0.00,Wunderground v.1.15,2013-02-05 16:34:00,
2013-02-05 10:40:00,34.5,29.6,29.93,SSW,199,9.0,15.0,82,0.00,,,0.00,Wunderground v.1.15,2013-02-05 16:40:00,
2013-02-05 10:46:00,35.1,30.2,29.93,SW,214,10.0,15.0,82,0.00,,,0.00,Wunderground v.1.15,2013-02-05 16:46:00,
2013-02-05 10:52:00,35.7,30.4,29.93,SSW,207,9.0,10.0,81,0.00,,,0.00,Wunderground v.1.15,2013-02-05 16:52:00,
2013-02-05 10:58:00,36.2,30.6,29.93,SSW,203,9.0,13.0,80,0.00,,,0.00,Wunderground v.1.15,2013-02-05 16:58:00,
2013-02-05 11:04:00,36.6,30.7,29.92,SSW,202,9.0,11.0,79,0.00,,,0.00,Wunderground v.1.15,2013-02-05 17:04:00,
2013-02-05 11:10:00,37.3,31.4,29.92,SW,221,8.0,8.0,79,0.00,,,0.00,Wunderground v.1.15,2013-02-05 17:10:00,
2013-02-05 11:16:00,37.7,31.1,29.91,SSW,206,8.0,16.0,77,0.00,,,0.00,Wunderground v.1.15,2013-02-05 17:16:00,
2013-02-05 11:22:00,38.1,31.5,29.91,SSW,206,9.0,17.0,77,0.00,,,0.00,Wunderground v.1.15,2013-02-05 17:22:00,
2013-02-05 11:27:00,38.2,31.6,29.91,South,190,10.0,17.0,77,0.00,,,0.00,Wunderground v.1.15,2013-02-05 17:27:00,
2013-02-05 11:33:00,38.6,31.7,29.90,SSW,200,10.0,11.0,76,0.00,,,0.00,Wunderground v.1.15,2013-02-05 17:33:00,
2013-02-05 11:38:00,39.3,32.0,29.90,SSW,197,9.0,12.0,75,0.00,,,0.00,Wunderground v.1.15,2013-02-05 17:38:00,
2013-02-05 11:44:00,39.3,31.7,29.90,SW,225,10.0,14.0,74,0.00,,,0.00,Wunderground v.1.15,2013-02-05 17:44:00,
2013-02-05 11:50:00,39.7,32.1,29.90,SSW,197,10.0,11.0,74,0.00,,,0.00,Wunderground v.1.15,2013-02-05 17:50:00,
2013-02-05 11:56:00,40.3,32.3,29.90,SSW,206,10.0,16.0,73,0.00,,,0.00,Wunderground v.1.15,2013-02-05 17:56:00,
2013-02-05 12:02:00,40.5,32.5,29.90,SW,236,11.0,16.0,73,0.00,,,0.00,Wunderground v.1.15,2013-02-05 18:02:00,
2013-02-05 12:08:00,40.6,32.6,29.90,SW,225,11.0,16.0,73,0.00,,,0.00,Wunderground v.1.15,2013-02-05 18:08:00,
2013-02-05 12:13:00,41.0,32.7,29.89,SSW,203,10.0,11.0,72,0.00,,,0.00,Wunderground v.1.15,2013-02-05 18:13:00,
2013-02-05 12:19:00,41.1,32.8,29.89,SW,225,11.0,14.0,72,0.00,,,0.00,Wunderground v.1.15,2013-02-05 18:19:00,
2013-02-05 12:25:00,41.6,32.9,29.89,SW,235,11.0,13.0,71,0.00,,,0.00,Wunderground v.1.15,2013-02-05 18:25:00,
2013-02-05 12:31:00,41.7,33.3,29.89,SW,233,11.0,11.0,72,0.00,,,0.00,Wunderground v.1.15,2013-02-05 18:31:00,
2013-02-05 12:37:00,42.0,33.3,29.89,SW,229,11.0,15.0,71,0.00,,,0.00,Wunderground v.1.15,2013-02-05 18:37:00,
2013-02-05 12:43:00,42.2,33.5,29.89,SW,219,12.0,12.0,71,0.00,,,0.00,Wunderground v.1.15,2013-02-05 18:43:00,
2013-02-05 12:48:00,42.6,33.9,29.89,SW,221,11.0,16.0,71,0.00,,,0.00,Wunderground v.1.15,2013-02-05 18:48:00,
2013-02-05 12:54:00,43.2,33.7,29.88,SW,219,11.0,15.0,69,0.00,,,0.00,Wunderground v.1.15,2013-02-05 18:54:00,
2013-02-05 13:00:00,43.5,33.6,29.88,SW,221,12.0,12.0,68,0.00,,,0.00,Wunderground v.1.15,2013-02-05 19:00:00,
2013-02-05 13:05:00,43.4,33.9,29.88,WSW,253,12.0,13.0,69,0.00,,,0.00,Wunderground v.1.15,2013-02-05 19:05:00,
2013-02-05 13:11:00,43.7,34.2,29.88,SW,228,12.0,13.0,69,0.00,,,0.00,Wunderground v.1.15,2013-02-05 19:11:00,
2013-02-05 13:17:00,43.9,34.4,29.89,SW,217,12.0,16.0,69,0.00,,,0.00,Wunderground v.1.15,2013-02-05 19:17:00,
2013-02-05 13:23:00,44.0,34.1,29.88,WSW,252,13.0,17.0,68,0.00,,,0.00,Wunderground v.1.15,2013-02-05 19:23:00,
2013-02-05 13:29:00,44.2,34.3,29.88,SW,220,13.0,17.0,68,0.00,,,0.00,Wunderground v.1.15,2013-02-05 19:29:00,
2013-02-05 13:35:00,44.5,34.6,29.88,WSW,239,11.0,12.0,68,0.00,,,0.00,Wunderground v.1.15,2013-02-05 19:35:00,
2013-02-05 13:41:00,45.1,34.4,29.88,WSW,247,10.0,11.0,66,0.00,,,0.00,Wunderground v.1.15,2013-02-05 19:41:00,
2013-02-05 13:47:00,45.4,35.1,29.88,WSW,242,11.0,14.0,67,0.00,,,0.00,Wunderground v.1.15,2013-02-05 19:47:00,
2013-02-05 13:53:00,46.0,35.3,29.88,WSW,252,11.0,12.0,66,0.00,,,0.00,Wunderground v.1.15,2013-02-05 19:53:00,
2013-02-05 13:58:00,46.0,35.3,29.89,WSW,237,12.0,14.0,66,0.00,,,0.00,Wunderground v.1.15,2013-02-05 19:58:00,
2013-02-05 14:04:00,46.4,34.9,29.88,WSW,245,12.0,15.0,64,0.00,,,0.00,Wunderground v.1.15,2013-02-05 20:04:00,
2013-02-05 14:09:00,46.7,35.6,29.88,WSW,258,11.0,15.0,65,0.00,,,0.00,Wunderground v.1.15,2013-02-05 20:09:00,
2013-02-05 14:15:00,47.0,35.4,29.88,WSW,258,11.0,15.0,64,0.00,,,0.00,Wunderground v.1.15,2013-02-05 20:15:00,
2013-02-05 14:21:00,47.3,35.7,29.88,WSW,243,12.0,18.0,64,0.00,,,0.00,Wunderground v.1.15,2013-02-05 20:21:00,
2013-02-05 14:27:00,47.5,35.5,29.88,WSW,247,13.0,18.0,63,0.00,,,0.00,Wunderground v.1.15,2013-02-05 20:27:00,
2013-02-05 14:32:00,47.7,35.7,29.88,WSW,246,13.0,15.0,63,0.00,,,0.00,Wunderground v.1.15,2013-02-05 20:32:00,
2013-02-05 14:38:00,47.8,36.2,29.88,West,260,12.0,18.0,64,0.00,,,0.00,Wunderground v.1.15,2013-02-05 20:38:00,
2013-02-05 14:43:00,48.4,36.4,29.89,West,271,11.0,13.0,63,0.00,,,0.00,Wunderground v.1.15,2013-02-05 20:43:00,
2013-02-05 14:49:00,48.5,36.1,29.89,West,262,12.0,16.0,62,0.00,,,0.00,Wunderground v.1.15,2013-02-05 20:49:00,
2013-02-05 14:55:00,48.8,36.4,29.90,WSW,251,11.0,12.0,62,0.00,,,0.00,Wunderground v.1.15,2013-02-05 20:55:00,
2013-02-05 15:00:00,49.0,36.5,29.90,West,261,10.0,16.0,62,0.00,,,0.00,Wunderground v.1.15,2013-02-05 21:00:00,
2013-02-05 15:05:00,49.2,36.3,29.90,West,259,10.0,16.0,61,0.00,,,0.00,Wunderground v.1.15,2013-02-05 21:05:00,
2013-02-05 15:11:00,49.6,36.3,29.90,West,274,9.0,13.0,60,0.00,,,0.00,Wunderground v.1.15,2013-02-05 21:11:00,
2013-02-05 15:17:00,49.6,35.8,29.91,WSW,248,9.0,17.0,59,0.00,,,0.00,Wunderground v.1.15,2013-02-05 21:17:00,
2013-02-05 15:23:00,49.6,35.8,29.91,West,272,9.0,15.0,59,0.00,,,0.00,Wunderground v.1.15,2013-02-05 21:23:00,
2013-02-05 15:29:00,49.4,35.2,29.91,WSW,254,11.0,17.0,58,0.00,,,0.00,Wunderground v.1.15,2013-02-05 21:29:00,
2013-02-05 15:35:00,49.3,35.6,29.91,WNW,296,12.0,15.0,59,0.00,,,0.00,Wunderground v.1.15,2013-02-05 21:35:00,
2013-02-05 15:41:00,49.1,35.8,29.92,West,264,12.0,12.0,60,0.00,,,0.00,Wunderground v.1.15,2013-02-05 21:41:00,
2013-02-05 15:47:00,49.1,36.2,29.92,WNW,300,10.0,13.0,61,0.00,,,0.00,Wunderground v.1.15,2013-02-05 21:47:00,
2013-02-05 15:53:00,49.0,35.7,29.92,West,278,10.0,10.0,60,0.00,,,0.00,Wunderground v.1.15,2013-02-05 21:53:00,
2013-02-05 15:59:00,48.8,35.1,29.93,West,277,12.0,21.0,59,0.00,,,0.00,Wunderground v.1.15,2013-02-05 21:59:00,
2013-02-05 16:05:00,48.6,35.3,29.93,West,272,12.0,21.0,60,0.00,,,0.00,Wunderground v.1.15,2013-02-05 22:05:00,
2013-02-05 16:11:00,48.4,34.7,29.93,West,271,12.0,12.0,59,0.00,,,0.00,Wunderground v.1.15,2013-02-05 22:11:00,
2013-02-05 16:17:00,48.2,35.0,29.94,West,269,10.0,16.0,60,0.00,,,0.00,Wunderground v.1.15,2013-02-05 22:17:00,
2013-02-05 16:23:00,47.9,35.1,29.94,West,271,10.0,11.0,61,0.00,,,0.00,Wunderground v.1.15,2013-02-05 22:23:00,
2013-02-05 16:28:00,47.8,34.6,29.94,WNW,299,10.0,12.0,60,0.00,,,0.00,Wunderground v.1.15,2013-02-05 22:28:00,
2013-02-05 16:34:00,47.6,35.2,29.95,WNW,298,9.0,11.0,62,0.00,,,0.00,Wunderground v.1.15,2013-02-05 22:34:00,
2013-02-05 16:40:00,47.1,35.1,29.95,NW,304,8.0,8.0,63,0.00,,,0.00,Wunderground v.1.15,2013-02-05 22:40:00,
2013-02-05 16:46:00,46.6,35.1,29.95,WNW,289,7.0,9.0,64,0.00,,,0.00,Wunderground v.1.15,2013-02-05 22:46:00,
2013-02-05 16:52:00,46.2,35.1,29.96,WNW,302,6.0,9.0,65,0.00,,,0.00,Wunderground v.1.15,2013-02-05 22:52:00,
2013-02-05 16:58:00,45.8,35.1,29.96,NW,310,6.0,10.0,66,0.00,,,0.00,Wunderground v.1.15,2013-02-05 22:58:00,
2013-02-05 17:04:00,45.4,34.7,29.96,WNW,294,6.0,10.0,66,0.00,,,0.00,Wunderground v.1.15,2013-02-05 23:04:00,
2013-02-05 17:10:00,45.0,34.7,29.97,WNW,298,6.0,8.0,67,0.00,,,0.00,Wunderground v.1.15,2013-02-05 23:10:00,
2013-02-05 17:16:00,44.5,34.6,29.97,NW,307,6.0,8.0,68,0.00,,,0.00,Wunderground v.1.15,2013-02-05 23:16:00,
2013-02-05 17:21:00,43.9,34.4,29.97,NW,323,6.0,8.0,69,0.00,,,0.00,Wunderground v.1.15,2013-02-05 23:21:00,
2013-02-05 17:27:00,43.4,34.3,29.98,NW,325,5.0,8.0,70,0.00,,,0.00,Wunderground v.1.15,2013-02-05 23:27:00,
2013-02-05 17:33:00,42.9,34.1,29.98,WNW,282,5.0,5.0,71,0.00,,,0.00,Wunderground v.1.15,2013-02-05 23:33:00,
2013-02-05 17:39:00,42.4,33.7,29.98,WNW,290,5.0,7.0,71,0.00,,,0.00,Wunderground v.1.15,2013-02-05 23:39:00,
2013-02-05 17:44:00,42.0,33.6,29.98,WNW,283,6.0,9.0,72,0.00,,,0.00,Wunderground v.1.15,2013-02-05 23:44:00,
2013-02-05 17:50:00,41.7,33.3,29.99,WNW,289,6.0,7.0,72,0.00,,,0.00,Wunderground v.1.15,2013-02-05 23:50:00,
2013-02-05 17:56:00,41.6,32.9,29.99,West,262,6.0,10.0,71,0.00,,,0.00,Wunderground v.1.15,2013-02-05 23:56:00,
2013-02-05 18:01:00,41.5,32.8,29.99,WNW,289,6.0,6.0,71,0.00,,,0.00,Wunderground v.1.15,2013-02-06 00:01:00,
2013-02-05 18:07:00,41.4,33.0,30.00,WNW,298,6.0,10.0,72,0.00,,,0.00,Wunderground v.1.15,2013-02-06 00:07:00,
2013-02-05 18:13:00,41.3,33.0,30.00,WNW,288,7.0,12.0,72,0.00,,,0.00,Wunderground v.1.15,2013-02-06 00:13:00,
2013-02-05 18:18:00,41.2,32.9,30.00,West,281,7.0,13.0,72,0.00,,,0.00,Wunderground v.1.15,2013-02-06 00:18:00,
2013-02-05 18:24:00,41.2,33.2,30.01,West,262,7.0,11.0,73,0.00,,,0.00,Wunderground v.1.15,2013-02-06 00:24:00,
2013-02-05 18:29:00,41.1,33.1,30.01,WNW,301,8.0,11.0,73,0.00,,,0.00,Wunderground v.1.15,2013-02-06 00:29:00,
2013-02-05 18:35:00,40.9,32.9,30.01,WNW,298,7.0,11.0,73,0.00,,,0.00,Wunderground v.1.15,2013-02-06 00:35:00,
2013-02-05 18:41:00,40.6,33.0,30.02,West,277,7.0,11.0,74,0.00,,,0.00,Wunderground v.1.15,2013-02-06 00:41:00,
2013-02-05 18:47:00,40.2,32.6,30.02,NW,307,7.0,11.0,74,0.00,,,0.00,Wunderground v.1.15,2013-02-06 00:47:00,
2013-02-05 18:53:00,39.8,32.8,30.02,WNW,303,8.0,8.0,76,0.00,,,0.00,Wunderground v.1.15,2013-02-06 00:53:00,
2013-02-05 18:59:00,39.6,32.7,30.03,NW,304,8.0,8.0,76,0.00,,,0.00,Wunderground v.1.15,2013-02-06 00:59:00,
2013-02-05 19:05:00,39.5,32.9,30.03,NW,310,7.0,12.0,77,0.00,,,0.00,Wunderground v.1.15,2013-02-06 01:05:00,
2013-02-05 19:11:00,39.4,32.8,30.04,WNW,290,8.0,8.0,77,0.00,,,0.00,Wunderground v.1.15,2013-02-06 01:11:00,
2013-02-05 19:17:00,39.2,32.6,30.04,WNW,301,6.0,8.0,77,0.00,,,0.00,Wunderground v.1.15,2013-02-06 01:17:00,
2013-02-05 19:22:00,38.9,32.6,30.04,WNW,302,5.0,6.0,78,0.00,,,0.00,Wunderground v.1.15,2013-02-06 01:22:00,
2013-02-05 19:28:00,38.4,32.5,30.04,NW,305,5.0,7.0,79,0.00,,,0.00,Wunderground v.1.15,2013-02-06 01:28:00,
2013-02-05 19:34:00,38.1,32.2,30.04,NW,304,5.0,7.0,79,0.00,,,0.00,Wunderground v.1.15,2013-02-06 01:34:00,
2013-02-05 19:40:00,37.8,32.2,30.05,WNW,287,5.0,5.0,80,0.00,,,0.00,Wunderground v.1.15,2013-02-06 01:40:00,
2013-02-05 19:46:00,37.5,32.2,30.05,WNW,298,6.0,6.0,81,0.00,,,0.00,Wunderground v.1.15,2013-02-06 01:46:00,
2013-02-05 19:51:00,37.4,32.1,30.06,WNW,292,5.0,5.0,81,0.00,,,0.00,Wunderground v.1.15,2013-02-06 01:51:00,
2013-02-05 19:57:00,37.1,32.1,30.06,NW,318,5.0,6.0,82,0.00,,,0.00,Wunderground v.1.15,2013-02-06 01:57:00,
2013-02-05 20:03:00,36.9,31.9,30.06,NW,304,5.0,8.0,82,0.00,,,0.00,Wunderground v.1.15,2013-02-06 02:03:00,
2013-02-05 20:09:00,36.6,31.9,30.06,WNW,298,4.0,8.0,83,0.00,,,0.00,Wunderground v.1.15,2013-02-06 02:09:00,
2013-02-05 20:15:00,36.4,31.7,30.06,WNW,283,5.0,9.0,83,0.00,,,0.00,Wunderground v.1.15,2013-02-06 02:15:00,
2013-02-05 20:21:00,36.1,31.4,30.06,NW,316,5.0,5.0,83,0.00,,,0.00,Wunderground v.1.15,2013-02-06 02:21:00,
2013-02-05 20:27:00,36.0,31.3,30.07,NNW,336,4.0,6.0,83,0.00,,,0.00,Wunderground v.1.15,2013-02-06 02:27:00,
2013-02-05 20:33:00,35.8,31.1,30.07,NNW,340,5.0,9.0,83,0.00,,,0.00,Wunderground v.1.15,2013-02-06 02:33:00,
2013-02-05 20:38:00,35.8,31.1,30.07,NNW,337,5.0,9.0,83,0.00,,,0.00,Wunderground v.1.15,2013-02-06 02:38:00,
2013-02-05 20:44:00,36.0,31.3,30.08,NW,325,6.0,6.0,83,0.00,,,0.00,Wunderground v.1.15,2013-02-06 02:44:00,
2013-02-05 20:50:00,36.2,31.5,30.08,NNW,340,6.0,7.0,83,0.00,,,0.00,Wunderground v.1.15,2013-02-06 02:50:00,
2013-02-05 20:56:00,36.2,31.5,30.08,NNW,338,6.0,7.0,83,0.00,,,0.00,Wunderground v.1.15,2013-02-06 02:56:00,
2013-02-05 21:02:00,36.2,31.2,30.08,North,354,6.0,8.0,82,0.00,,,0.00,Wunderground v.1.15,2013-02-06 03:02:00,
2013-02-05 21:08:00,36.2,31.2,30.09,North,350,7.0,9.0,82,0.00,,,0.00,Wunderground v.1.15,2013-02-06 03:08:00,
2013-02-05 21:14:00,36.1,30.8,30.09,NNW,333,6.0,7.0,81,0.00,,,0.00,Wunderground v.1.15,2013-02-06 03:14:00,
2013-02-05 21:19:00,36.0,30.7,30.09,NNW,331,6.0,7.0,81,0.00,,,0.00,Wunderground v.1.15,2013-02-06 03:19:00,
2013-02-05 21:25:00,35.7,30.7,30.09,NNW,347,6.0,8.0,82,0.00,,,0.00,Wunderground v.1.15,2013-02-06 03:25:00,
2013-02-05 21:31:00,35.3,30.4,30.09,NNW,334,5.0,7.0,82,0.00,,,0.00,Wunderground v.1.15,2013-02-06 03:31:00,
2013-02-05 21:37:00,35.1,30.2,30.09,NNW,342,5.0,8.0,82,0.00,,,0.00,Wunderground v.1.15,2013-02-06 03:37:00,
2013-02-05 21:43:00,34.9,30.3,30.10,NW,317,4.0,6.0,83,0.00,,,0.00,Wunderground v.1.15,2013-02-06 03:43:00,
2013-02-05 21:48:00,34.7,30.1,30.10,NNW,327,4.0,6.0,83,0.00,,,0.00,Wunderground v.1.15,2013-02-06 03:48:00,
2013-02-05 21:54:00,34.7,30.1,30.10,NW,312,4.0,4.0,83,0.00,,,0.00,Wunderground v.1.15,2013-02-06 03:54:00,
2013-02-05 22:00:00,34.6,30.0,30.10,NNW,330,3.0,3.0,83,0.00,,,0.00,Wunderground v.1.15,2013-02-06 04:00:00,
2013-02-05 22:06:00,34.4,29.8,30.10,NNW,330,3.0,5.0,83,0.00,,,0.00,Wunderground v.1.15,2013-02-06 04:06:00,
2013-02-05 22:12:00,34.2,29.6,30.10,NW,323,3.0,3.0,83,0.00,,,0.00,Wunderground v.1.15,2013-02-06 04:12:00,
2013-02-05 22:18:00,34.1,29.5,30.10,NW,325,3.0,5.0,83,0.00,,,0.00,Wunderground v.1.15,2013-02-06 04:18:00,
2013-02-05 22:24:00,33.9,29.3,30.10,NNW,345,3.0,6.0,83,0.00,,,0.00,Wunderground v.1.15,2013-02-06 04:24:00,
2013-02-05 22:30:00,33.8,29.5,30.10,NNW,327,3.0,3.0,84,0.00,,,0.00,Wunderground v.1.15,2013-02-06 04:30:00,
2013-02-05 22:35:00,33.8,29.5,30.10,NNW,341,3.0,4.0,84,0.00,,,0.00,Wunderground v.1.15,2013-02-06 04:35:00,
2013-02-05 22:41:00,33.7,29.4,30.10,NNW,333,3.0,3.0,84,0.00,,,0.00,Wunderground v.1.15,2013-02-06 04:41:00,
2013-02-05 22:47:00,33.8,29.2,30.11,NW,324,2.0,4.0,83,0.00,,,0.00,Wunderground v.1.15,2013-02-06 04:47:00,
2013-02-05 22:53:00,33.8,29.2,30.12,NW,316,2.0,5.0,83,0.00,,,0.00,Wunderground v.1.15,2013-02-06 04:53:00,
2013-02-05 22:59:00,33.8,29.2,30.12,West,275,3.0,5.0,83,0.00,,,0.00,Wunderground v.1.15,2013-02-06 04:59:00,
2013-02-05 23:00:00,33.8,29.2,30.12,West,274,3.0,4.0,83,0.00,,,0.00,Wunderground v.1.15,2013-02-06 05:00:00,
2013-02-05 23:01:00,33.7,29.1,30.12,West,274,3.0,4.0,83,0.00,,,0.00,Wunderground v.1.15,2013-02-06 05:01:00,
2013-02-05 23:02:00,33.7,29.1,30.12,West,264,3.0,4.0,83,0.00,,,0.00,Wunderground v.1.15,2013-02-06 05:02:00,
2013-02-05 23:07:00,33.4,28.8,30.13,WSW,243,4.0,5.0,83,0.00,,,0.00,Wunderground v.1.15,2013-02-06 05:07:00,
2013-02-05 23:08:00,33.3,29.0,30.13,WSW,241,4.0,5.0,84,0.00,,,0.00,Wunderground v.1.15,2013-02-06 05:08:00,
2013-02-05 23:13:00,33.0,28.7,30.13,WSW,241,4.0,5.0,84,0.00,,,0.00,Wunderground v.1.15,2013-02-06 05:13:00,
2013-02-05 23:19:00,32.5,28.5,30.13,WSW,242,3.0,5.0,85,0.00,,,0.00,Wunderground v.1.15,2013-02-06 05:19:00,
2013-02-05 23:25:00,32.0,28.3,30.13,WSW,241,3.0,3.0,86,0.00,,,0.00,Wunderground v.1.15,2013-02-06 05:25:00,
2013-02-05 23:31:00,31.7,28.3,30.13,WSW,242,3.0,3.0,87,0.00,,,0.00,Wunderground v.1.15,2013-02-06 05:31:00,
2013-02-05 23:37:00,31.5,28.4,30.13,WSW,242,3.0,3.0,88,0.00,,,0.00,Wunderground v.1.15,2013-02-06 05:37:00,
2013-02-05 23:43:00,31.4,28.3,30.14,WSW,239,3.0,6.0,88,0.00,,,0.00,Wunderground v.1.15,2013-02-06 05:43:00,
2013-02-05 23:49:00,31.3,28.2,30.13,WSW,242,3.0,6.0,88,0.00,,,0.00,Wunderground v.1.15,2013-02-06 05:49:00,
2013-02-05 23:54:00,31.1,28.0,30.14,WSW,242,2.0,3.0,88,0.00,,,0.00,Wunderground v.1.15,2013-02-06 05:54:00,